TimeCST,TemperatureF,Dew PointF,Humidity,Sea Level PressureIn,VisibilityMPH,Wind Direction,Wind SpeedMPH,Gust SpeedMPH,PrecipitationIn,Events,Conditions,WindDirDegrees,DateUTC
12:15 AM,44.6,24.8,46,29.44,10.0,SSE,6.9,-,N/A,,Clear,150,2013-02-18 06:15:00
12:35 AM,44.6,24.8,46,29.42,10.0,SE,10.4,-,N/A,,Clear,140,2013-02-18 06:35:00
12:55 AM,42.8,24.8,49,29.40,10.0,SSE,8.1,-,N/A,,Clear,160,2013-02-18 06:55:00
1:15 AM,42.8,24.8,49,29.42,10.0,SSE,3.5,-,N/A,,Clear,150,2013-02-18 07:15:00
1:35 AM,44.6,24.8,46,29.41,10.0,SSW,6.9,-,N/A,,Clear,200,2013-02-18 07:35:00
1:55 AM,41.0,24.8,53,29.42,10.0,North,8.1,-,N/A,,Clear,10,2013-02-18 07:55:00
2:15 AM,39.2,24.8,56,29.41,10.0,NNE,6.9,-,N/A,,Clear,20,2013-02-18 08:15:00
2:35 AM,37.4,24.8,60,29.42,10.0,NW,5.8,-,N/A,,Clear,310,2013-02-18 08:35:00
2:55 AM,39.2,24.8,56,29.43,10.0,NNW,23.0,26.5,N/A,,Clear,340,2013-02-18 08:55:00
3:15 AM,42.8,24.8,49,29.47,10.0,North,27.6,34.5,N/A,,Clear,350,2013-02-18 09:15:00
3:35 AM,42.8,28.4,57,29.48,10.0,North,33.4,44.9,N/A,,Clear,360,2013-02-18 09:35:00
3:55 AM,41.0,28.4,61,29.51,10.0,North,35.7,41.4,N/A,,Clear,360,2013-02-18 09:55:00
4:15 AM,41.0,28.4,61,29.53,10.0,North,32.2,41.4,N/A,,Clear,350,2013-02-18 10:15:00
4:35 AM,41.0,28.4,61,29.55,10.0,North,31.1,40.3,N/A,,Clear,360,2013-02-18 10:35:00
4:55 AM,39.2,28.4,65,29.57,10.0,North,26.5,35.7,N/A,,Clear,350,2013-02-18 10:55:00
5:15 AM,39.2,28.4,65,29.58,10.0,North,26.5,34.5,N/A,,Clear,360,2013-02-18 11:15:00
5:35 AM,39.2,28.4,65,29.60,10.0,North,21.9,-,N/A,,Clear,350,2013-02-18 11:35:00
6:15 AM,37.4,26.6,65,29.63,10.0,NNW,20.7,26.5,N/A,,Clear,340,2013-02-18 12:15:00
6:35 AM,37.4,24.8,60,29.66,10.0,NNW,18.4,-,N/A,,Clear,340,2013-02-18 12:35:00
6:55 AM,37.4,24.8,60,29.68,10.0,NNW,20.7,28.8,N/A,,Clear,340,2013-02-18 12:55:00
7:15 AM,37.4,24.8,60,29.70,10.0,NNW,19.6,-,N/A,,Clear,340,2013-02-18 13:15:00
7:35 AM,37.4,24.8,60,29.72,10.0,NNW,18.4,-,N/A,,Clear,340,2013-02-18 13:35:00
7:55 AM,35.6,24.8,65,29.74,10.0,NNW,18.4,-,N/A,,Clear,340,2013-02-18 13:55:00
8:15 AM,37.4,24.8,60,29.76,10.0,NNW,19.6,28.8,N/A,,Clear,340,2013-02-18 14:15:00
8:35 AM,37.4,26.6,65,29.78,10.0,NNW,23.0,29.9,N/A,,Scattered Clouds,330,2013-02-18 14:35:00
8:55 AM,39.2,24.8,56,29.80,10.0,North,23.0,32.2,N/A,,Mostly Cloudy,350,2013-02-18 14:55:00
9:15 AM,39.2,24.8,56,29.82,10.0,NNW,24.2,29.9,N/A,,Overcast,340,2013-02-18 15:15:00
9:35 AM,39.2,26.6,61,29.82,10.0,North,25.3,33.4,N/A,,Overcast,350,2013-02-18 15:35:00
9:55 AM,39.2,24.8,56,29.83,10.0,NNW,21.9,33.4,N/A,,Mostly Cloudy,340,2013-02-18 15:55:00
10:15 AM,39.2,24.8,56,29.85,10.0,NNW,24.2,32.2,N/A,,Mostly Cloudy,340,2013-02-18 16:15:00
10:35 AM,41.0,24.8,53,29.85,10.0,NNW,25.3,34.5,N/A,,Mostly Cloudy,340,2013-02-18 16:35:00
10:55 AM,42.8,23.0,46,29.85,10.0,North,27.6,35.7,N/A,,Scattered Clouds,350,2013-02-18 16:55:00
11:15 AM,44.6,23.0,43,29.86,10.0,NNW,24.2,34.5,N/A,,Partly Cloudy,340,2013-02-18 17:15:00
11:35 AM,44.6,23.0,43,29.87,10.0,NW,27.6,33.4,N/A,,Partly Cloudy,320,2013-02-18 17:35:00
11:55 AM,44.6,23.0,43,29.88,10.0,NNW,25.3,32.2,N/A,,Clear,340,2013-02-18 17:55:00
12:15 PM,44.6,21.2,39,29.89,10.0,NNW,25.3,36.8,N/A,,Clear,340,2013-02-18 18:15:00
12:35 PM,44.6,21.2,39,29.89,10.0,NNW,25.3,32.2,N/A,,Clear,340,2013-02-18 18:35:00
12:55 PM,46.4,21.2,37,29.89,10.0,NNW,26.5,33.4,N/A,,Partly Cloudy,330,2013-02-18 18:55:00
1:15 PM,46.4,21.2,37,29.89,10.0,North,25.3,32.2,N/A,,Partly Cloudy,350,2013-02-18 19:15:00
1:35 PM,46.4,19.4,34,29.89,10.0,NNW,20.7,32.2,N/A,,Clear,330,2013-02-18 19:35:00
1:55 PM,48.2,19.4,32,29.89,10.0,NNW,25.3,34.5,N/A,,Clear,340,2013-02-18 19:55:00
2:15 PM,48.2,19.4,32,29.89,10.0,NNW,24.2,32.2,N/A,,Clear,330,2013-02-18 20:15:00
2:35 PM,48.2,19.4,32,29.89,10.0,NNW,23.0,29.9,N/A,,Clear,330,2013-02-18 20:35:00
2:55 PM,48.2,17.6,30,29.90,10.0,North,26.5,31.1,N/A,,Clear,350,2013-02-18 20:55:00
3:15 PM,48.2,17.6,30,29.91,10.0,North,19.6,27.6,N/A,,Clear,350,2013-02-18 21:15:00
3:35 PM,48.2,15.8,27,29.92,10.0,North,24.2,29.9,N/A,,Clear,350,2013-02-18 21:35:00
3:55 PM,48.2,14.0,25,29.93,10.0,North,20.7,31.1,N/A,,Clear,350,2013-02-18 21:55:00
4:15 PM,48.2,14.0,25,29.93,10.0,NNW,26.5,34.5,N/A,,Clear,340,2013-02-18 22:15:00
4:35 PM,46.4,14.0,27,29.94,10.0,NNW,24.2,27.6,N/A,,Clear,340,2013-02-18 22:35:00
4:55 PM,46.4,14.0,27,29.95,10.0,NNW,18.4,24.2,N/A,,Clear,340,2013-02-18 22:55:00
5:15 PM,46.4,14.0,27,29.95,10.0,NNW,17.3,-,N/A,,Clear,340,2013-02-18 23:15:00
5:35 PM,44.6,14.0,29,29.97,10.0,North,17.3,-,N/A,,Clear,350,2013-02-18 23:35:00
5:55 PM,44.6,14.0,29,29.98,10.0,North,13.8,-,N/A,,Clear,350,2013-02-18 23:55:00
6:15 PM,41.0,12.2,31,29.99,10.0,North,15.0,-,N/A,,Clear,350,2013-02-19 00:15:00
6:35 PM,39.2,12.2,33,30.01,10.0,North,11.5,-,N/A,,Clear,350,2013-02-19 00:35:00
6:55 PM,37.4,12.2,36,30.02,10.0,North,10.4,-,N/A,,Clear,350,2013-02-19 00:55:00
7:15 PM,35.6,12.2,38,30.04,10.0,North,9.2,-,N/A,,Clear,350,2013-02-19 01:15:00
7:35 PM,33.8,12.2,41,30.05,10.0,North,8.1,-,N/A,,Clear,350,2013-02-19 01:35:00
7:55 PM,32.0,12.2,44,30.05,10.0,North,5.8,-,N/A,,Clear,360,2013-02-19 01:55:00
8:15 PM,32.0,12.2,44,30.06,10.0,North,3.5,-,N/A,,Partly Cloudy,360,2013-02-19 02:15:00
8:35 PM,30.2,12.2,47,30.06,10.0,Calm,Calm,-,N/A,,Mostly Cloudy,0,2013-02-19 02:35:00
8:55 PM,30.2,12.2,47,30.06,10.0,Calm,Calm,-,N/A,,Partly Cloudy,0,2013-02-19 02:55:00
9:15 PM,30.2,12.2,47,30.07,10.0,Calm,Calm,-,N/A,,Clear,0,2013-02-19 03:15:00
9:35 PM,28.4,12.2,51,30.08,10.0,West,4.6,-,N/A,,Clear,260,2013-02-19 03:35:00
9:55 PM,28.4,12.2,51,30.09,10.0,West,4.6,-,N/A,,Clear,270,2013-02-19 03:55:00
10:15 PM,26.6,12.2,55,30.10,10.0,West,4.6,-,N/A,,Clear,280,2013-02-19 04:15:00
10:35 PM,24.8,12.2,59,30.10,10.0,West,4.6,-,N/A,,Partly Cloudy,280,2013-02-19 04:35:00
10:55 PM,21.2,10.4,63,30.11,10.0,West,3.5,-,N/A,,Partly Cloudy,270,2013-02-19 04:55:00
11:15 PM,23.0,12.2,63,30.11,10.0,Calm,Calm,-,N/A,,Clear,0,2013-02-19 05:15:00
11:35 PM,23.0,12.2,63,30.12,10.0,Calm,Calm,-,N/A,,Clear,0,2013-02-19 05:35:00
11:55 PM,23.0,12.2,63,30.12,10.0,Calm,Calm,-,N/A,,Clear,0,2013-02-19 05:55:00